| time (UTC) | temp C | wind direction | speed KPH | gust KPH | rain 1hr cm | rain 24hr cm | rain mn cm | humidity % | barometer mb |
| 20260906074804 | 15 | 172 | 0.0 | 0.0 | 0.00 | 0.00 | 0.00 | 81 | 1028.2 |
| 20260906074303 | 15 | 171 | 0.0 | 0.0 | 0.00 | 0.00 | 0.00 | 82 | 1028.2 |
| 20260906073803 | 15 | 170 | 0.0 | 0.0 | 0.00 | 0.00 | 0.00 | 81 | 1028.2 |
| 20260906073304 | 15 | 173 | 0.0 | 0.0 | 0.00 | 0.00 | 0.00 | 84 | 1028.1 |
| 20260906072803 | 14 | 173 | 0.0 | 1.6 | 0.00 | 0.00 | 0.00 | 84 | 1028.2 |
| 20260906072306 | 14 | 71 | 0.0 | 0.0 | 0.00 | 0.00 | 0.00 | 86 | 1028.2 |
| 20260906071804 | 13 | 173 | 0.0 | 1.6 | 0.00 | 0.00 | 0.00 | 86 | 1028.2 |
| 20260906071304 | 13 | 70 | 0.0 | 0.0 | 0.00 | 0.00 | 0.00 | 86 | 1028.2 |
| 20260906070803 | 13 | 70 | 0.0 | 0.0 | 0.00 | 0.00 | 0.00 | 86 | 1028.2 |
| 20260906070304 | 13 | 70 | 0.0 | 0.0 | 0.00 | 0.00 | 0.00 | 88 | 1028.2 |
| 20260906065804 | 13 | 136 | 0.0 | 0.0 | 0.00 | 0.00 | 0.00 | 88 | 1028.2 |
| 20260906065305 | 12 | 136 | 0.0 | 0.0 | 0.00 | 0.00 | 0.00 | 90 | 1028.2 |
| 20260906064804 | 12 | 136 | 0.0 | 0.0 | 0.00 | 0.00 | 0.00 | 91 | 1028.2 |
| 20260906064304 | 12 | 136 | 0.0 | 0.0 | 0.00 | 0.00 | 0.00 | 92 | 1028.2 |
| 20260906063804 | 12 | 136 | 0.0 | 0.0 | 0.00 | 0.00 | 0.00 | 93 | 1028.2 |
| 20260906063303 | 11 | 136 | 0.0 | 0.0 | 0.00 | 0.00 | 0.00 | 94 | 1028.2 |
| 20260906062803 | 11 | 136 | 0.0 | 0.0 | 0.00 | 0.00 | 0.00 | 95 | 1028.2 |
| 20260906062306 | 11 | 136 | 0.0 | 0.0 | 0.00 | 0.00 | 0.00 | 96 | 1028.2 |
| 20260906061803 | 11 | 136 | 0.0 | 0.0 | 0.00 | 0.00 | 0.00 | 97 | 1028.2 |
| 20260906060803 | 10 | 38 | 0.0 | 0.0 | 0.00 | 0.00 | 0.00 | 99 | 1028.2 |
| 20260906060304 | 10 | 38 | 0.0 | 0.0 | 0.00 | 0.00 | 0.00 | 99 | 1028.2 |
| 20260906055803 | 10 | 38 | 0.0 | 0.0 | 0.00 | 0.00 | 0.00 | 99 | 1028.2 |
| 20260906055306 | 10 | 304 | 0.0 | 0.0 | 0.00 | 0.00 | 0.00 | 100 | 1028.2 |
| 20260906054803 | 10 | 304 | 0.0 | 0.0 | 0.00 | 0.00 | 0.00 | 100 | 1028.2 |
| 20260906054303 | 9 | 304 | 0.0 | 0.0 | 0.00 | 0.00 | 0.00 | 100 | 1027.8 |
| 20260906053303 | 8 | 304 | 0.0 | 0.0 | 0.00 | 0.00 | 0.00 | 100 | 1027.8 |
| 20260906052803 | 8 | 304 | 0.0 | 0.0 | 0.00 | 0.00 | 0.00 | 100 | 1027.8 |
| 20260906051803 | 8 | 304 | 0.0 | 0.0 | 0.00 | 0.00 | 0.00 | 100 | 1027.8 |
| 20260906051304 | 8 | 304 | 0.0 | 0.0 | 0.00 | 0.00 | 0.00 | 100 | 1027.8 |
| 20260906050803 | 8 | 304 | 0.0 | 0.0 | 0.00 | 0.00 | 0.00 | 100 | 1027.8 |
| 20260906045804 | 8 | 304 | 0.0 | 0.0 | 0.00 | 0.00 | 0.00 | 100 | 1027.8 |
| 20260906044803 | 8 | 304 | 0.0 | 0.0 | 0.00 | 0.00 | 0.00 | 100 | 1027.8 |
| 20260906044303 | 8 | 304 | 0.0 | 0.0 | 0.00 | 0.00 | 0.00 | 100 | 1027.8 |
| 20260906043803 | 8 | 304 | 0.0 | 0.0 | 0.00 | 0.00 | 0.00 | 100 | 1027.8 |
| 20260906042804 | 8 | 304 | 0.0 | 0.0 | 0.00 | 0.00 | 0.00 | 100 | 1027.8 |
| 20260906042306 | 8 | 304 | 0.0 | 0.0 | 0.00 | 0.00 | 0.00 | 100 | 1027.7 |
| 20260906041804 | 8 | 304 | 0.0 | 0.0 | 0.00 | 0.00 | 0.00 | 100 | 1027.7 |
| 20260906041304 | 8 | 304 | 0.0 | 0.0 | 0.00 | 0.00 | 0.00 | 100 | 1027.7 |
| 20260906040804 | 8 | 304 | 0.0 | 0.0 | 0.00 | 0.00 | 0.00 | 100 | 1027.7 |
| 20260906040303 | 8 | 304 | 0.0 | 0.0 | 0.00 | 0.00 | 0.00 | 100 | 1027.7 |
| 20260906035804 | 8 | 304 | 0.0 | 0.0 | 0.00 | 0.00 | 0.00 | 100 | 1027.6 |
| 20260906035306 | 8 | 304 | 0.0 | 0.0 | 0.00 | 0.05 | 0.00 | 100 | 1027.6 |
| 20260906034804 | 8 | 304 | 0.0 | 0.0 | 0.00 | 0.08 | 0.00 | 100 | 1027.6 |
| 20260906034304 | 8 | 304 | 0.0 | 0.0 | 0.00 | 0.13 | 0.00 | 100 | 1027.6 |
| 20260906033804 | 8 | 304 | 0.0 | 0.0 | 0.00 | 0.15 | 0.00 | 100 | 1027.6 |
| 20260906033304 | 8 | 304 | 0.0 | 0.0 | 0.00 | 0.15 | 0.00 | 100 | 1027.6 |
| 20260906032803 | 8 | 304 | 0.0 | 0.0 | 0.00 | 0.18 | 0.00 | 99 | 1027.5 |
| 20260906032306 | 9 | 304 | 0.0 | 0.0 | 0.00 | 0.20 | 0.00 | 99 | 1027.5 |
| 20260906031803 | 9 | 304 | 0.0 | 0.0 | 0.00 | 0.25 | 0.00 | 99 | 1027.5 |
| 20260906031304 | 9 | 304 | 0.0 | 0.0 | 0.00 | 0.33 | 0.00 | 99 | 1027.5 |
| 20260906030804 | 9 | 304 | 0.0 | 0.0 | 0.00 | 0.36 | 0.00 | 99 | 1027.5 |
| 20260906030303 | 9 | 304 | 0.0 | 0.0 | 0.00 | 0.43 | 0.00 | 99 | 1027.5 |
| 20260906024804 | 9 | 304 | 0.0 | 0.0 | 0.00 | 0.61 | 0.00 | 100 | 1027.5 |
| 20260906024304 | 9 | 304 | 0.0 | 0.0 | 0.00 | 0.61 | 0.00 | 99 | 1027.5 |
| 20260906023804 | 9 | 304 | 0.0 | 0.0 | 0.00 | 0.66 | 0.00 | 99 | 1027.3 |
| 20260906023304 | 9 | 304 | 0.0 | 0.0 | 0.00 | 0.84 | 0.00 | 99 | 1027.3 |
| 20260906021803 | 9 | 304 | 0.0 | 0.0 | 0.00 | 1.12 | 0.00 | 99 | 1027.3 |
| 20260906021303 | 9 | 304 | 0.0 | 0.0 | 0.00 | 1.17 | 0.00 | 99 | 1027.3 |
| 20260906020803 | 9 | 304 | 0.0 | 0.0 | 0.00 | 1.24 | 0.00 | 99 | 1027.3 |
| 20260906020304 | 10 | 304 | 0.0 | 0.0 | 0.00 | 1.32 | 0.00 | 99 | 1027.2 |
| 20260906015804 | 10 | 304 | 0.0 | 0.0 | 0.00 | 1.35 | 0.00 | 99 | 1027.2 |
| 20260906015306 | 10 | 304 | 0.0 | 0.0 | 0.00 | 1.35 | 0.00 | 99 | 1027.2 |
| 20260906014804 | 10 | 304 | 0.0 | 0.0 | 0.00 | 1.35 | 0.00 | 98 | 1027.2 |
| 20260906014303 | 10 | 304 | 0.0 | 0.0 | 0.00 | 1.35 | 0.00 | 98 | 1027.2 |
| 20260906013803 | 10 | 304 | 0.0 | 0.0 | 0.00 | 1.35 | 0.00 | 99 | 1027.4 |
| 20260906013305 | 10 | 304 | 0.0 | 0.0 | 0.00 | 1.35 | 0.00 | 98 | 1027.4 |
| 20260906012804 | 10 | 304 | 0.0 | 0.0 | 0.00 | 1.35 | 0.00 | 98 | 1027.4 |
| 20260906012306 | 10 | 304 | 0.0 | 0.0 | 0.00 | 1.35 | 0.00 | 99 | 1027.4 |
| 20260906011803 | 10 | 304 | 0.0 | 0.0 | 0.00 | 1.35 | 0.00 | 99 | 1027.4 |
| 20260906011303 | 10 | 304 | 0.0 | 0.0 | 0.00 | 1.35 | 0.00 | 98 | 1027.4 |
| 20260906010804 | 10 | 304 | 0.0 | 0.0 | 0.00 | 1.35 | 0.00 | 98 | 1027.2 |
| 20260906010304 | 10 | 304 | 0.0 | 0.0 | 0.00 | 1.35 | 0.00 | 98 | 1027.2 |
| 20260906005804 | 10 | 304 | 0.0 | 0.0 | 0.00 | 1.35 | 0.00 | 98 | 1027.2 |
| 20260906005306 | 10 | 304 | 0.0 | 0.0 | 0.00 | 1.35 | 0.00 | 98 | 1027.2 |
| 20260906004804 | 10 | 304 | 0.0 | 0.0 | 0.00 | 1.35 | 0.00 | 98 | 1027.2 |
| 20260906004304 | 10 | 304 | 0.0 | 0.0 | 0.00 | 1.35 | 0.00 | 98 | 1026.7 |
| 20260906003803 | 10 | 304 | 0.0 | 0.0 | 0.00 | 1.35 | 0.00 | 98 | 1026.7 |
| 20260906003304 | 10 | 304 | 0.0 | 0.0 | 0.00 | 1.35 | 0.00 | 97 | 1026.7 |
| 20260906002803 | 10 | 304 | 0.0 | 0.0 | 0.00 | 1.35 | 0.00 | 98 | 1026.7 |
| 20260906001804 | 10 | 304 | 0.0 | 0.0 | 0.00 | 1.35 | 0.00 | 97 | 1026.7 |
| 20260906001303 | 10 | 304 | 0.0 | 0.0 | 0.00 | 1.35 | 0.00 | 97 | 1026.7 |
| 20260906000803 | 10 | 304 | 0.0 | 0.0 | 0.00 | 1.35 | 0.00 | 97 | 1026.7 |
| 20260906000304 | 10 | 304 | 0.0 | 0.0 | 0.00 | 1.35 | 0.00 | 96 | 1026.7 |
| 20260905235804 | 11 | 304 | 0.0 | 0.0 | 0.00 | 1.35 | 0.00 | 97 | 1026.7 |
| 20260905235306 | 11 | 304 | 0.0 | 0.0 | 0.00 | 1.35 | 0.00 | 96 | 1026.7 |
| 20260905234803 | 11 | 304 | 0.0 | 0.0 | 0.00 | 1.35 | 0.00 | 96 | 1026.7 |
| 20260905234304 | 11 | 304 | 0.0 | 0.0 | 0.00 | 1.35 | 0.00 | 96 | 1026.7 |
| 20260905233804 | 11 | 304 | 0.0 | 0.0 | 0.00 | 1.35 | 0.00 | 96 | 1026.7 |
| 20260905233304 | 11 | 304 | 0.0 | 0.0 | 0.00 | 1.35 | 0.00 | 96 | 1026.7 |
| 20260905232804 | 11 | 304 | 0.0 | 0.0 | 0.00 | 1.35 | 0.00 | 96 | 1026.7 |
| 20260905231803 | 11 | 304 | 0.0 | 0.0 | 0.00 | 1.35 | 0.00 | 96 | 1026.7 |
| 20260905231303 | 11 | 304 | 0.0 | 0.0 | 0.00 | 1.35 | 0.00 | 95 | 1026.7 |
| 20260905230803 | 11 | 304 | 0.0 | 0.0 | 0.00 | 1.35 | 0.00 | 95 | 1026.7 |
| 20260905225804 | 11 | 304 | 0.0 | 0.0 | 0.00 | 1.35 | 0.00 | 95 | 1026.5 |
| 20260905225306 | 11 | 304 | 0.0 | 0.0 | 0.00 | 1.35 | 0.00 | 95 | 1026.5 |
| 20260905224804 | 11 | 304 | 0.0 | 0.0 | 0.00 | 1.35 | 0.00 | 94 | 1026.3 |
| 20260905224304 | 11 | 304 | 0.0 | 0.0 | 0.00 | 1.35 | 0.00 | 92 | 1026.3 |
| 20260905223803 | 11 | 304 | 0.0 | 0.0 | 0.00 | 1.35 | 0.00 | 92 | 1026.3 |
| 20260905223303 | 11 | 304 | 0.0 | 0.0 | 0.00 | 1.35 | 0.00 | 91 | 1026.3 |
| 20260905222804 | 11 | 304 | 0.0 | 0.0 | 0.00 | 1.35 | 0.00 | 93 | 1026.2 |
| 20260905222306 | 11 | 304 | 0.0 | 0.0 | 0.00 | 1.35 | 0.00 | 93 | 1026.2 |
| 20260905221804 | 12 | 304 | 0.0 | 0.0 | 0.00 | 1.35 | 0.00 | 93 | 1026.2 |
| 20260905221303 | 12 | 304 | 0.0 | 0.0 | 0.00 | 1.35 | 0.00 | 93 | 1025.9 |
| 20260905220810 | 12 | 304 | 0.0 | 0.0 | 0.00 | 1.35 | 0.00 | 93 | 1025.9 |
| 20260905220304 | 12 | 304 | 0.0 | 0.0 | 0.00 | 1.35 | 0.00 | 93 | 1025.9 |
| 20260905215804 | 12 | 304 | 0.0 | 0.0 | 0.00 | 1.35 | 1.35 | 93 | 1025.9 |
| 20260905215306 | 12 | 304 | 0.0 | 0.0 | 0.00 | 1.35 | 1.35 | 93 | 1025.9 |
| 20260905214303 | 12 | 304 | 0.0 | 0.0 | 0.00 | 1.35 | 1.35 | 91 | 1025.9 |
| 20260905213804 | 12 | 304 | 0.0 | 0.0 | 0.00 | 1.35 | 1.35 | 91 | 1025.9 |
| 20260905213304 | 12 | 304 | 0.0 | 0.0 | 0.00 | 1.35 | 1.35 | 91 | 1025.8 |
| 20260905212803 | 12 | 304 | 0.0 | 0.0 | 0.00 | 1.35 | 1.35 | 91 | 1025.7 |
| 20260905212306 | 12 | 304 | 0.0 | 0.0 | 0.00 | 1.35 | 1.35 | 91 | 1025.5 |
| 20260905211804 | 12 | 304 | 0.0 | 0.0 | 0.00 | 1.35 | 1.35 | 90 | 1025.5 |
| 20260905210304 | 13 | 304 | 0.0 | 0.0 | 0.00 | 1.35 | 1.35 | 89 | 1025.5 |
| 20260905205804 | 13 | 304 | 0.0 | 0.0 | 0.00 | 1.35 | 1.35 | 88 | 1025.5 |
| 20260905205306 | 13 | 304 | 0.0 | 0.0 | 0.00 | 1.35 | 1.35 | 88 | 1025.5 |
| 20260905204304 | 13 | 304 | 0.0 | 0.0 | 0.00 | 1.35 | 1.35 | 86 | 1025.3 |
| 20260905203803 | 13 | 304 | 0.0 | 0.0 | 0.00 | 1.35 | 1.35 | 87 | 1025.3 |
| 20260905203303 | 13 | 304 | 0.0 | 0.0 | 0.00 | 1.35 | 1.35 | 86 | 1025.3 |
| 20260905202803 | 13 | 304 | 0.0 | 0.0 | 0.00 | 1.35 | 1.35 | 86 | 1025.3 |
| 20260905202306 | 13 | 304 | 0.0 | 0.0 | 0.00 | 1.35 | 1.35 | 87 | 1025.1 |
| 20260905201803 | 13 | 304 | 0.0 | 0.0 | 0.00 | 1.35 | 1.35 | 86 | 1025.1 |
| 20260905201303 | 14 | 304 | 0.0 | 0.0 | 0.00 | 1.35 | 1.35 | 85 | 1025.1 |
| 20260905200803 | 14 | 304 | 0.0 | 0.0 | 0.00 | 1.35 | 1.35 | 85 | 1025.1 |
| 20260905200304 | 14 | 304 | 0.0 | 0.0 | 0.00 | 1.35 | 1.35 | 85 | 1025.1 |
| 20260905195804 | 15 | 304 | 0.0 | 0.0 | 0.00 | 1.35 | 1.35 | 85 | 1025.1 |
| 20260905195306 | 15 | 304 | 0.0 | 0.0 | 0.00 | 1.35 | 1.35 | 84 | 1024.9 |
| 20260905194804 | 15 | 304 | 0.0 | 0.0 | 0.00 | 1.35 | 1.35 | 84 | 1024.9 |
| 20260905194303 | 15 | 304 | 0.0 | 0.0 | 0.00 | 1.35 | 1.35 | 82 | 1024.9 |
| 20260905193804 | 15 | 304 | 0.0 | 0.0 | 0.00 | 1.35 | 1.35 | 81 | 1024.9 |
| 20260905193304 | 15 | 304 | 0.0 | 0.0 | 0.00 | 1.35 | 1.35 | 82 | 1024.6 |
| 20260905192306 | 16 | 304 | 0.0 | 0.0 | 0.00 | 1.35 | 1.35 | 80 | 1024.6 |
| 20260905191804 | 16 | 304 | 0.0 | 0.0 | 0.00 | 1.35 | 1.35 | 79 | 1024.6 |
| 20260905191304 | 16 | 304 | 0.0 | 0.0 | 0.00 | 1.35 | 1.35 | 78 | 1024.6 |
| 20260905190803 | 16 | 304 | 0.0 | 0.0 | 0.00 | 1.35 | 1.35 | 76 | 1024.6 |
| 20260905190303 | 16 | 304 | 0.0 | 0.0 | 0.00 | 1.35 | 1.35 | 75 | 1024.6 |
| 20260905185804 | 17 | 304 | 0.0 | 0.0 | 0.00 | 1.35 | 1.35 | 74 | 1024.2 |
| 20260905185306 | 17 | 304 | 0.0 | 0.0 | 0.00 | 1.35 | 1.35 | 73 | 1024.2 |
| 20260905184804 | 17 | 304 | 0.0 | 0.0 | 0.00 | 1.35 | 1.35 | 72 | 1024.2 |
| 20260905184304 | 17 | 304 | 0.0 | 0.0 | 0.00 | 1.35 | 1.35 | 73 | 1024.2 |
| 20260905183804 | 17 | 304 | 0.0 | 0.0 | 0.00 | 1.35 | 1.35 | 70 | 1024.2 |
| 20260905183304 | 18 | 304 | 0.0 | 0.0 | 0.00 | 1.35 | 1.35 | 70 | 1024.2 |
| 20260905182804 | 18 | 304 | 0.0 | 0.0 | 0.00 | 1.35 | 1.35 | 66 | 1023.7 |
| 20260905182305 | 18 | 304 | 0.0 | 0.0 | 0.00 | 1.35 | 1.35 | 64 | 1023.7 |
| 20260905181304 | 20 | 304 | 0.0 | 0.0 | 0.00 | 1.35 | 1.35 | 61 | 1023.7 |
| 20260905180804 | 20 | 304 | 0.0 | 0.0 | 0.00 | 1.35 | 1.35 | 57 | 1023.7 |
| 20260905180303 | 21 | 304 | 0.0 | 0.0 | 0.00 | 1.35 | 1.35 | 55 | 1023.7 |
| 20260905175306 | 21 | 305 | 0.0 | 0.0 | 0.00 | 1.35 | 1.35 | 53 | 1023.7 |
| 20260905174803 | 22 | 286 | 0.0 | 4.8 | 0.00 | 1.35 | 1.35 | 53 | 1023.7 |
| 20260905174304 | 22 | 277 | 0.0 | 3.2 | 0.00 | 1.35 | 1.35 | 52 | 1023.7 |
| 20260905173804 | 22 | 270 | 0.0 | 1.6 | 0.00 | 1.35 | 1.35 | 51 | 1023.7 |
| 20260905173304 | 22 | 310 | 0.0 | 8.0 | 0.00 | 1.35 | 1.35 | 51 | 1023.6 |
| 20260905172803 | 22 | 321 | 0.0 | 1.6 | 0.00 | 1.35 | 1.35 | 51 | 1023.6 |
| 20260905172305 | 22 | 2 | 0.0 | 1.6 | 0.00 | 1.35 | 1.35 | 52 | 1023.5 |
| 20260905171803 | 22 | 267 | 0.0 | 1.6 | 0.00 | 1.35 | 1.35 | 50 | 1023.5 |
| 20260905171303 | 22 | 177 | 0.0 | 1.6 | 0.00 | 1.35 | 1.35 | 50 | 1023.4 |
| 20260905170803 | 23 | 275 | 0.0 | 3.2 | 0.00 | 1.35 | 1.35 | 49 | 1023.4 |
| 20260905170304 | 23 | 326 | 3.2 | 12.9 | 0.00 | 1.35 | 1.35 | 48 | 1023.4 |
| 20260905165804 | 23 | 263 | 0.0 | 1.6 | 0.00 | 1.35 | 1.35 | 49 | 1023.0 |
| 20260905165306 | 23 | 297 | 0.0 | 3.2 | 0.00 | 1.35 | 1.35 | 48 | 1023.0 |
| 20260905164804 | 23 | 295 | 1.6 | 9.7 | 0.00 | 1.35 | 1.35 | 47 | 1023.0 |
| 20260905164304 | 24 | 9 | 3.2 | 11.3 | 0.00 | 1.35 | 1.35 | 46 | 1023.0 |
| 20260905163803 | 25 | 6 | 1.6 | 4.8 | 0.00 | 1.35 | 1.35 | 44 | 1023.0 |
| 20260905163304 | 25 | 291 | 1.6 | 8.0 | 0.00 | 1.35 | 1.35 | 44 | 1023.0 |
| 20260905162804 | 25 | 272 | 1.6 | 4.8 | 0.00 | 1.35 | 1.35 | 45 | 1023.0 |
| 20260905162306 | 25 | 334 | 1.6 | 8.0 | 0.00 | 1.35 | 1.35 | 44 | 1023.0 |
| 20260905161804 | 25 | 289 | 1.6 | 11.3 | 0.00 | 1.35 | 1.35 | 43 | 1023.0 |
| 20260905161304 | 25 | 286 | 1.6 | 8.0 | 0.00 | 1.35 | 1.35 | 43 | 1023.0 |
| 20260905160803 | 26 | 353 | 3.2 | 11.3 | 0.00 | 1.35 | 1.35 | 43 | 1023.0 |
| 20260905160304 | 26 | 301 | 3.2 | 11.3 | 0.00 | 1.35 | 1.35 | 41 | 1022.8 |
| 20260905155804 | 26 | 317 | 0.0 | 4.8 | 0.00 | 1.35 | 1.35 | 42 | 1022.8 |
| 20260905155306 | 26 | 304 | 1.6 | 11.3 | 0.00 | 1.35 | 1.35 | 41 | 1022.8 |
| 20260905154804 | 26 | 316 | 0.0 | 4.8 | 0.00 | 1.35 | 1.35 | 42 | 1022.8 |
| 20260905154303 | 26 | 261 | 0.0 | 8.0 | 0.00 | 1.35 | 1.35 | 41 | 1022.8 |
| 20260905153803 | 26 | 283 | 1.6 | 8.0 | 0.00 | 1.35 | 1.35 | 40 | 1022.8 |
| 20260905153304 | 26 | 264 | 0.0 | 9.7 | 0.00 | 1.35 | 1.35 | 41 | 1022.8 |
| 20260905152804 | 26 | 340 | 1.6 | 8.0 | 0.00 | 1.35 | 1.35 | 41 | 1022.6 |
| 20260905152306 | 26 | 301 | 1.6 | 11.3 | 0.00 | 1.35 | 1.35 | 42 | 1022.6 |
| 20260905151804 | 26 | 291 | 3.2 | 8.0 | 0.00 | 1.35 | 1.35 | 42 | 1022.6 |
| 20260905150804 | 27 | 353 | 3.2 | 8.0 | 0.00 | 1.35 | 1.35 | 43 | 1022.6 |
| 20260905150304 | 27 | 306 | 3.2 | 8.0 | 0.00 | 1.35 | 1.35 | 42 | 1022.6 |
| 20260905145804 | 27 | 291 | 3.2 | 9.7 | 0.00 | 1.35 | 1.35 | 43 | 1022.6 |
| 20260905145306 | 27 | 280 | 3.2 | 8.0 | 0.00 | 1.35 | 1.35 | 44 | 1022.5 |
| 20260905144303 | 27 | 256 | 1.6 | 8.0 | 0.00 | 1.35 | 1.35 | 44 | 1022.5 |
| 20260905143803 | 26 | 293 | 3.2 | 14.5 | 0.00 | 1.35 | 1.35 | 43 | 1022.5 |
| 20260905143304 | 27 | 263 | 4.8 | 14.5 | 0.00 | 1.35 | 1.35 | 43 | 1022.5 |
| 20260905142803 | 27 | 310 | 3.2 | 12.9 | 0.00 | 1.35 | 1.35 | 44 | 1022.6 |
| 20260905142305 | 27 | 290 | 1.6 | 12.9 | 0.00 | 1.35 | 1.35 | 45 | 1022.6 |
| 20260905141803 | 27 | 312 | 1.6 | 9.7 | 0.00 | 1.35 | 1.35 | 46 | 1022.6 |
| 20260905141304 | 27 | 259 | 3.2 | 12.9 | 0.00 | 1.35 | 1.35 | 47 | 1022.6 |
| 20260905140803 | 27 | 282 | 1.6 | 16.1 | 0.00 | 1.35 | 1.35 | 45 | 1022.6 |
| 20260905140304 | 27 | 284 | 3.2 | 9.7 | 0.00 | 1.35 | 1.35 | 44 | 1022.5 |
| 20260905135306 | 27 | 309 | 1.6 | 8.0 | 0.00 | 1.35 | 1.35 | 47 | 1022.5 |
| 20260905134804 | 27 | 308 | 0.0 | 16.1 | 0.00 | 1.35 | 1.35 | 48 | 1022.6 |
| 20260905134304 | 26 | 312 | 0.0 | 12.9 | 0.00 | 1.35 | 1.35 | 49 | 1022.6 |
| 20260905133803 | 26 | 284 | 3.2 | 12.9 | 0.00 | 1.35 | 1.35 | 47 | 1022.6 |
| 20260905133303 | 26 | 352 | 1.6 | 8.0 | 0.00 | 1.35 | 1.35 | 49 | 1022.7 |
| 20260905132803 | 26 | 290 | 1.6 | 4.8 | 0.00 | 1.35 | 1.35 | 49 | 1022.7 |
| 20260905132305 | 26 | 281 | 1.6 | 12.9 | 0.00 | 1.35 | 1.35 | 49 | 1022.7 |
| 20260905131804 | 26 | 289 | 1.6 | 9.7 | 0.00 | 1.35 | 1.35 | 50 | 1022.7 |
| 20260905131303 | 26 | 309 | 1.6 | 9.7 | 0.00 | 1.35 | 1.35 | 52 | 1022.7 |
| 20260905130803 | 26 | 300 | 1.6 | 8.0 | 0.00 | 1.35 | 1.35 | 53 | 1022.8 |
| 20260905130303 | 26 | 328 | 0.0 | 9.7 | 0.00 | 1.35 | 1.35 | 52 | 1022.8 |
| 20260905124804 | 25 | 304 | 3.2 | 8.0 | 0.00 | 1.35 | 1.35 | 54 | 1022.8 |
| 20260905124304 | 25 | 301 | 3.2 | 12.9 | 0.00 | 1.35 | 1.35 | 54 | 1022.8 |
| 20260905123804 | 26 | 277 | 1.6 | 8.0 | 0.00 | 1.35 | 1.35 | 56 | 1022.8 |
| 20260905123304 | 25 | 280 | 1.6 | 8.0 | 0.00 | 1.35 | 1.35 | 55 | 1022.8 |
| 20260905122804 | 25 | 4 | 1.6 | 14.5 | 0.00 | 1.35 | 1.35 | 55 | 1022.8 |
| 20260905121803 | 25 | 312 | 0.0 | 12.9 | 0.00 | 1.35 | 1.35 | 58 | 1022.7 |
| 20260905121304 | 25 | 343 | 3.2 | 8.0 | 0.00 | 1.35 | 1.35 | 53 | 1022.8 |
| 20260905120804 | 25 | 274 | 1.6 | 8.0 | 0.00 | 1.35 | 1.35 | 55 | 1022.8 |
| 20260905120304 | 25 | 274 | 0.0 | 4.8 | 0.00 | 1.35 | 1.35 | 54 | 1022.8 |
| 20260905115805 | 25 | 311 | 1.6 | 4.8 | 0.00 | 1.35 | 1.35 | 54 | 1022.8 |
| 20260905114304 | 25 | 328 | 1.6 | 4.8 | 0.00 | 1.35 | 1.35 | 56 | 1022.8 |
| 20260905113804 | 25 | 261 | 1.6 | 20.9 | 0.00 | 1.35 | 1.35 | 54 | 1022.8 |
| 20260905113304 | 25 | 259 | 0.0 | 4.8 | 0.00 | 1.35 | 1.35 | 58 | 1023.0 |
| 20260905112803 | 24 | 263 | 0.0 | 4.8 | 0.00 | 1.35 | 1.35 | 58 | 1023.0 |
| 20260905112305 | 24 | 241 | 0.0 | 3.2 | 0.00 | 1.35 | 1.35 | 58 | 1023.0 |
| 20260905111804 | 25 | 37 | 0.0 | 4.8 | 0.00 | 1.35 | 1.35 | 58 | 1023.0 |
| 20260905111304 | 25 | 242 | 3.2 | 9.7 | 0.00 | 1.35 | 1.35 | 58 | 1023.1 |
| 20260905110803 | 25 | 220 | 0.0 | 11.3 | 0.00 | 1.35 | 1.35 | 60 | 1023.1 |
| 20260905105804 | 25 | 279 | 1.6 | 8.0 | 0.00 | 1.35 | 1.35 | 61 | 1023.1 |
| 20260905105306 | 25 | 294 | 1.6 | 8.0 | 0.00 | 1.35 | 1.35 | 61 | 1023.1 |
| 20260905104804 | 25 | 1 | 1.6 | 14.5 | 0.00 | 1.35 | 1.35 | 61 | 1023.1 |
| 20260905104304 | 24 | 287 | 1.6 | 4.8 | 0.00 | 1.35 | 1.35 | 62 | 1023.0 |
| 20260905103803 | 24 | 344 | 1.6 | 9.7 | 0.00 | 1.35 | 1.35 | 63 | 1023.0 |
| 20260905102804 | 23 | 312 | 1.6 | 4.8 | 0.00 | 1.35 | 1.35 | 65 | 1023.1 |
| 20260905102306 | 22 | 323 | 1.6 | 8.0 | 0.00 | 1.35 | 1.35 | 67 | 1023.1 |
| 20260905101803 | 22 | 288 | 0.0 | 3.2 | 0.00 | 1.35 | 1.35 | 68 | 1023.1 |
| 20260905101304 | 22 | 292 | 0.0 | 8.0 | 0.00 | 1.35 | 1.35 | 67 | 1023.1 |
| 20260905100804 | 23 | 0 | 0.0 | 3.2 | 0.00 | 1.35 | 1.35 | 70 | 1023.1 |
| 20260905100303 | 23 | 287 | 0.0 | 8.0 | 0.00 | 1.35 | 1.35 | 69 | 1023.1 |
| 20260905095305 | 22 | 177 | 0.0 | 4.8 | 0.00 | 1.35 | 1.35 | 73 | 1023.1 |
| 20260905094803 | 22 | 32 | 1.6 | 4.8 | 0.00 | 1.35 | 1.35 | 72 | 1023.0 |
| 20260905094304 | 22 | 310 | 0.0 | 3.2 | 0.00 | 1.35 | 1.35 | 74 | 1023.0 |
| 20260905093804 | 22 | 5 | 0.0 | 9.7 | 0.00 | 1.35 | 1.35 | 73 | 1023.1 |
| 20260905093303 | 21 | 293 | 0.0 | 3.2 | 0.00 | 1.35 | 1.35 | 75 | 1022.4 |
| 20260905092804 | 22 | 259 | 0.0 | 3.2 | 0.00 | 1.35 | 1.35 | 74 | 1022.4 |
| 20260905091803 | 22 | 314 | 0.0 | 4.8 | 0.00 | 1.35 | 1.35 | 74 | 1022.4 |
| 20260905091305 | 21 | 211 | 0.0 | 1.6 | 0.00 | 1.35 | 1.35 | 76 | 1022.4 |
| 20260905090803 | 21 | 326 | 0.0 | 1.6 | 0.00 | 1.35 | 1.35 | 77 | 1022.4 |
| 20260905085804 | 21 | 277 | 0.0 | 4.8 | 0.00 | 1.35 | 1.35 | 80 | 1022.4 |
| 20260905085306 | 20 | 293 | 0.0 | 4.8 | 0.00 | 1.35 | 1.35 | 80 | 1022.4 |
| 20260905084804 | 20 | 252 | 0.0 | 1.6 | 0.00 | 1.35 | 1.35 | 82 | 1022.4 |
| 20260905084304 | 20 | 275 | 0.0 | 8.0 | 0.00 | 1.35 | 1.35 | 83 | 1022.4 |
| 20260905083804 | 20 | 323 | 0.0 | 1.6 | 0.00 | 1.35 | 1.35 | 84 | 1022.4 |
| 20260905083304 | 20 | 334 | 0.0 | 4.8 | 0.00 | 1.35 | 1.35 | 85 | 1022.4 |
| 20260905082804 | 20 | 275 | 0.0 | 4.8 | 0.00 | 1.35 | 1.35 | 85 | 1022.4 |
| 20260905081803 | 19 | 279 | 0.0 | 0.0 | 0.00 | 1.35 | 1.35 | 87 | 1022.4 |
| 20260905081304 | 19 | 358 | 0.0 | 3.2 | 0.00 | 1.35 | 1.35 | 87 | 1022.4 |
| 20260905080804 | 19 | 310 | 1.6 | 4.8 | 0.00 | 1.35 | 1.35 | 86 | 1022.4 |
| 20260905080304 | 18 | 159 | 0.0 | 0.0 | 0.00 | 1.35 | 1.35 | 90 | 1022.4 |
| 20260905075306 | 18 | 138 | 0.0 | 0.0 | 0.00 | 1.35 | 1.35 | 88 | 1022.4 |